Location: Guferjoch
(46.7462°N, 8.4506°E)
Time: 23:45:15
(UTC+00:00)

Cosmos 1908 Rocket - Pass Details

Date: 14 July 2020
Orbit: 605 x 633 km, 82.5° (Epoch: 03 August)

Event Time Altitude Azimuth Distance (km) Brightness Sun altitude
Exits shadow 03:05:55 - 209° (SSW) 2,321 5.9 -6.4°
Reaches altitude 10° 03:06:43 10° 212° (SSW) 2,012 5.6 -6.3°
Maximum altitude 03:10:59 43° 284° (WNW) 894 4.2 -5.7°
Drops below altitude 10° 03:15:16 10° 357° (N) 2,021 6.7 -5.2°
Sets 03:17:36 0° 4° (N) 2,931 7.7 -4.8°
